Location: Caltech
(34.1382°N, 118.1253°W)
Time: 19:41:32
(UTC-07:00)

Tiros 1 despin weight - Visible Passes

Search period start: 23 April 2014 00:00
Search period end: 03 May 2014 00:00
Orbit: 602 x 653 km, 48.2° (Epoch: 23 April)

Date Brightness Start Highest point End Pass type
(mag) Time Alt. Az. Time Alt. Az. Time Alt. Az.
23 Apr ? 05:36:18 10° S 05:39:46 22° SE 05:43:13 10° E visible
25 Apr ? 04:34:55 10° SSE 04:37:40 16° SE 04:40:24 10° E visible
26 Apr ? 04:53:52 15° SSW 04:57:08 36° SE 05:01:15 10° ENE visible
27 Apr ? 03:35:43 11° SE 03:35:43 11° SE 03:36:54 10° ESE visible
27 Apr ? 05:12:59 15° SW 05:16:45 83° SE 05:21:14 10° NE visible
28 Apr ? 03:54:43 26° SE 03:54:57 26° SE 03:58:43 10° ENE visible
28 Apr ? 05:32:10 10° WSW 05:36:32 48° NNW 05:40:52 10° NE visible
29 Apr ? 04:13:39 50° S 04:14:30 60° SE 04:18:55 10° ENE visible
30 Apr ? 02:55:14 13° E 02:55:14 13° E 02:55:59 10° E visible
30 Apr ? 04:32:29 36° WSW 04:34:11 64° NW 04:38:39 10° NE visible
01 May ? 03:13:59 29° E 03:13:59 29° E 03:16:31 10° ENE visible
01 May ? 04:51:14 17° W 04:54:03 34° NNW 04:58:09 10° NE visible
02 May ? 03:32:41 59° NE 03:32:41 59° NE 03:36:22 10° NE visible
02 May ? 05:10:37 10° WNW 05:14:06 21° NNW 05:17:33 10° NNE visible
